This is the latest recevied weather packets stored in our database for station/object K5FEP. If no packets are shown the sender has not sent any weather packets the latest 10 day(s).
| Time | Temp. | Humidity | Pressure | Rain* | Wind** | Luminosity | Snow |
|---|---|---|---|---|---|---|---|
| 1787945199 | 33.33° C | 42% | 1015.4 hPa | 0 mm | - | 330 W/m² | - |
| 1787944898 | 33.89° C | 41% | 1015.2 hPa | 0 mm | - | 424 W/m² | - |
| 1787944596 | 33.89° C | 42% | 1015.1 hPa | 0 mm | - | 773 W/m² | - |
| 1787944292 | 33.33° C | 43% | 1015.2 hPa | 0 mm | - | 824 W/m² | - |
| 1787943987 | 33.89° C | 41% | 1015.3 hPa | 0 mm | - | 833 W/m² | - |
| 1787943684 | 33.89° C | 42% | 1015.4 hPa | 0 mm | - | 776 W/m² | - |
| 1787943384 | 34.44° C | 41% | 1015.3 hPa | 0 mm | - | 930 W/m² | - |
| 1787943078 | 33.89° C | 43% | 1015.4 hPa | 0 mm | - | 528 W/m² | - |
| 1787942774 | 33.33° C | 43% | 1015.4 hPa | 0 mm | - | 840 W/m² | - |
| 1787942474 | 33.33° C | 43% | 1015.4 hPa | 0 mm | - | 818 W/m² | - |
| 1787942169 | 33.33° C | 44% | 1015.5 hPa | 0 mm | - | 799 W/m² | - |
| 1787941864 | 33.89° C | 41% | 1015.6 hPa | 0 mm | - | 908 W/m² | - |
| 1787941563 | 33.33° C | 45% | 1015.5 hPa | 0 mm | - | 902 W/m² | - |
| 1787941258 | 33.33° C | 44% | 1015.7 hPa | 0 mm | - | 839 W/m² | - |
| 1787940957 | 33.89° C | 44% | 1015.7 hPa | 0 mm | - | 712 W/m² | - |
| 1787940656 | 33.89° C | 43% | 1015.7 hPa | 0 mm | - | 819 W/m² | - |
| 1787940354 | 33.33° C | 44% | 1015.6 hPa | 0 mm | - | 971 W/m² | - |
| 1787940049 | 33.33° C | 46% | 1016 hPa | 0 mm | - | 950 W/m² | - |
| 1787939748 | 32.78° C | 45% | 1016 hPa | 0 mm | - | 938 W/m² | - |
| 1787939443 | 33.33° C | 45% | 1015.9 hPa | 0 mm | - | 873 W/m² | - |
| 1787939139 | 33.33° C | 44% | 1016 hPa | 0 mm | - | 949 W/m² | - |
| 1787938838 | 33.33° C | 44% | 1015.9 hPa | 0 mm | - | 963 W/m² | - |
| 1787938532 | 33.33° C | 45% | 1016.2 hPa | 0 mm | - | 950 W/m² | - |
| 1787938228 | 32.78° C | 47% | 1015.9 hPa | 0 mm | - | 947 W/m² | - |
| 1787937923 | 32.22° C | 47% | 1016.1 hPa | 0 mm | - | 411 W/m² | - |
* Rain latest hour (hover to see other rain measurements)
** Current wind speed in m/s (hover to see current wind gust speed)